TimeEDT,TemperatureF,Dew PointF,Humidity,Sea Level PressureIn,VisibilityMPH,Wind Direction,Wind SpeedMPH,Gust SpeedMPH,PrecipitationIn,Events,Conditions,WindDirDegrees,DateUTC
12:15 AM,75.2,62.6,65,30.00,10.0,WNW,3.5,-,N/A,,Clear,290,2014-06-06 04:15:00
12:35 AM,73.4,62.6,69,29.99,10.0,SW,3.5,-,N/A,,Clear,220,2014-06-06 04:35:00
12:55 AM,73.4,62.6,69,29.97,10.0,Calm,Calm,-,N/A,,Clear,0,2014-06-06 04:55:00
1:15 AM,71.6,62.6,73,29.96,10.0,South,4.6,-,N/A,,Clear,190,2014-06-06 05:15:00
1:35 AM,71.6,62.6,73,29.96,10.0,Calm,Calm,-,N/A,,Clear,0,2014-06-06 05:35:00
1:55 AM,71.6,62.6,73,29.93,10.0,SSW,3.5,-,N/A,,Clear,200,2014-06-06 05:55:00
2:15 AM,69.8,62.6,78,29.94,10.0,WSW,3.5,-,N/A,,Clear,250,2014-06-06 06:15:00
2:35 AM,71.6,62.6,73,29.93,10.0,WSW,3.5,-,N/A,,Clear,240,2014-06-06 06:35:00
2:55 AM,69.8,62.6,78,29.93,10.0,SSW,4.6,-,N/A,,Clear,200,2014-06-06 06:55:00
3:15 AM,69.8,62.6,78,29.92,10.0,Calm,Calm,-,N/A,,Clear,0,2014-06-06 07:15:00
3:35 AM,69.8,62.6,78,29.92,10.0,Calm,Calm,-,N/A,,Clear,0,2014-06-06 07:35:00
3:55 AM,68.0,62.6,83,29.92,9.0,Calm,Calm,-,N/A,,Clear,0,2014-06-06 07:55:00
4:15 AM,69.8,62.6,78,29.91,10.0,Calm,Calm,-,N/A,,Clear,0,2014-06-06 08:15:00
4:35 AM,69.8,62.6,78,29.92,10.0,South,3.5,-,N/A,,Clear,170,2014-06-06 08:35:00
4:55 AM,68.0,60.8,78,29.93,10.0,South,3.5,-,N/A,,Clear,170,2014-06-06 08:55:00
5:15 AM,66.2,60.8,83,29.94,10.0,SSW,3.5,-,N/A,,Clear,200,2014-06-06 09:15:00
5:35 AM,68.0,60.8,78,29.94,9.0,Calm,Calm,-,N/A,,Clear,0,2014-06-06 09:35:00
5:55 AM,68.0,60.8,78,29.95,7.0,Calm,Calm,-,N/A,,Clear,0,2014-06-06 09:55:00
6:15 AM,66.2,60.8,83,29.96,5.0,Calm,Calm,-,N/A,,Clear,0,2014-06-06 10:15:00
6:35 AM,66.2,60.8,83,29.97,5.0,North,3.5,-,N/A,,Clear,10,2014-06-06 10:35:00
6:50 AM,66.2,60.8,83,29.98,7.0,North,3.5,-,N/A,,Clear,360,2014-06-06 10:50:00
7:50 AM,71.6,62.6,73,30.01,10.0,Calm,Calm,-,N/A,,Clear,0,2014-06-06 11:50:00
8:50 AM,77.0,66.2,69,30.02,10.0,NW,8.1,-,N/A,,Scattered Clouds,320,2014-06-06 12:50:00
9:50 AM,80.6,66.2,61,30.02,10.0,NW,9.2,-,N/A,,Partly Cloudy,320,2014-06-06 13:50:00
11:50 AM,84.2,64.4,51,29.99,10.0,WSW,3.5,-,N/A,,Clear,240,2014-06-06 15:50:00
12:50 PM,87.8,64.4,46,29.97,10.0,South,5.8,-,N/A,,Clear,180,2014-06-06 16:50:00
1:50 PM,89.6,62.6,40,29.95,10.0,SW,6.9,-,N/A,,Partly Cloudy,220,2014-06-06 17:50:00
2:50 PM,89.6,62.6,40,29.94,10.0,SW,8.1,-,N/A,,Partly Cloudy,230,2014-06-06 18:50:00
3:50 PM,91.4,64.4,41,29.92,10.0,SSW,9.2,-,N/A,,Partly Cloudy,200,2014-06-06 19:50:00
4:50 PM,89.6,64.4,43,29.92,10.0,SW,10.4,16.1,N/A,,Partly Cloudy,230,2014-06-06 20:50:00
5:50 PM,87.8,66.2,49,29.93,10.0,WSW,11.5,-,N/A,,Partly Cloudy,250,2014-06-06 21:50:00
6:50 PM,84.2,66.2,55,29.94,10.0,WSW,11.5,-,N/A,,Clear,240,2014-06-06 22:50:00
7:55 PM,82.4,64.4,54,29.96,10.0,WSW,9.2,-,N/A,,Clear,240,2014-06-06 23:55:00
8:15 PM,80.6,64.4,58,29.96,10.0,WSW,5.8,-,N/A,,Clear,250,2014-06-07 00:15:00
8:35 PM,80.6,64.4,58,29.96,10.0,West,4.6,-,N/A,,Clear,270,2014-06-07 00:35:00
8:55 PM,78.8,64.4,61,29.97,10.0,WSW,5.8,-,N/A,,Clear,250,2014-06-07 00:55:00
9:15 PM,78.8,64.4,61,29.98,10.0,West,4.6,-,N/A,,Clear,270,2014-06-07 01:15:00
9:35 PM,78.8,64.4,61,29.98,10.0,West,4.6,-,N/A,,Clear,270,2014-06-07 01:35:00
9:55 PM,77.0,66.2,69,29.99,10.0,WSW,5.8,-,N/A,,Clear,250,2014-06-07 01:55:00
10:15 PM,77.0,66.2,69,29.99,10.0,SW,5.8,-,N/A,,Clear,230,2014-06-07 02:15:00
10:35 PM,77.0,66.2,69,29.99,10.0,WSW,6.9,-,N/A,,Clear,240,2014-06-07 02:35:00
10:55 PM,75.2,66.2,73,29.99,10.0,SSW,4.6,-,N/A,,Clear,200,2014-06-07 02:55:00
11:15 PM,75.2,64.4,69,29.99,10.0,SW,3.5,-,N/A,,Clear,220,2014-06-07 03:15:00
11:35 PM,75.2,64.4,69,30.00,10.0,Calm,Calm,-,N/A,,Clear,0,2014-06-07 03:35:00
11:55 PM,75.2,64.4,69,30.01,10.0,NW,3.5,-,N/A,,Clear,320,2014-06-07 03:55:00